Overview Statistics Trail Chart Weather Telemetry Raw packets
 

This is the latest recevied weather packets stored in our database for station/object 4S6DRJ-13. If no packets are shown the sender has not sent any weather packets the latest 10 day(s).

<< 244 245 246 247 248 249 250 >>
Time Temp. Humidity Pressure Rain* Wind** Luminosity Snow
1788107840 28.33° C 83% 1011 hPa 0 mm 0.45 m/s, 176° 0 W/m² -
1788107779 28.33° C 83% 1011 hPa 0 mm 0.89 m/s, 241° 0 W/m² -
1788107718 28.33° C 83% 1011 hPa 0 mm 0.89 m/s, 236° 0 W/m² -
1788107657 28.33° C 83% 1011 hPa 0 mm 0.89 m/s, 262° 0 W/m² -
1788107597 28.33° C 83% 1010.9 hPa 0 mm 0.45 m/s, 242° 0 W/m² -
1788107535 28.33° C 83% 1011 hPa 0 mm 0.45 m/s, 202° 0 W/m² -
1788107474 28.33° C 83% 1011 hPa 0 mm 1.79 m/s, 136° 0 W/m² -
1788107413 28.33° C 83% 1011.1 hPa 0 mm 0.89 m/s, 223° 0 W/m² -
1788107352 28.33° C 83% 1011.2 hPa 0 mm 1.34 m/s, 248° 0 W/m² -
1788107291 28.33° C 83% 1010.8 hPa 0 mm 0.45 m/s, 212° 0 W/m² -
1788107231 28.33° C 83% 1011 hPa 0 mm 0.45 m/s, 212° 0 W/m² -
1788107169 28.33° C 83% 1011.1 hPa 0 mm 0.89 m/s, 226° 0 W/m² -
1788107108 28.33° C 83% 1011 hPa 0 mm 2.24 m/s, 204° 0 W/m² -
1788107047 28.33° C 83% 1011 hPa 0 mm 0 m/s 0 W/m² -
1788106986 28.33° C 83% 1010.8 hPa 0 mm 0.45 m/s, 229° 0 W/m² -
1788106925 28.33° C 83% 1010.9 hPa 0 mm 0 m/s 0 W/m² -
1788106864 28.33° C 83% 1011 hPa 0 mm 0.45 m/s, 240° 0 W/m² -
1788106803 28.33° C 83% 1010.9 hPa 0 mm 0.89 m/s, 240° 0 W/m² -
1788106742 28.33° C 83% 1011.1 hPa 0 mm 1.34 m/s, 239° 0 W/m² -
1788106681 28.33° C 83% 1011 hPa 0 mm 0.89 m/s, 178° 0 W/m² -
1788106620 28.33° C 83% 1010.7 hPa 0 mm 1.34 m/s, 214° 0 W/m² -
1788106559 28.33° C 83% 1010.9 hPa 0 mm 1.79 m/s, 214° 0 W/m² -
1788106498 28.33° C 83% 1010.8 hPa 0 mm 1.79 m/s, 245° 0 W/m² -
1788106437 28.33° C 83% 1011 hPa 0 mm 2.24 m/s, 259° 0 W/m² -
1788106376 28.33° C 83% 1011.1 hPa 0 mm 0.45 m/s, 221° 0 W/m² -

* Rain latest hour (hover to see other rain measurements)
** Current wind speed in m/s (hover to see current wind gust speed)